Retour au catalogue

CZ-6A DEB

ActifSSO
NORAD 54386·DEBRIS·🇨🇳 China

Lancé Nov 11, 2022 depuis Taiyuan Satellite Launch Center

Loading…

Prochains Passages (prochaines 24 heures)

TLE

FraisSource: Space-Track

Époque: Sep 14, 2026, 08:56 UTC

1 54386U 22151DJ  26257.37261192  .00000703  00000-0  49064-3 0  9996
2 54386  98.9408 235.0003 0127031 200.2650 159.3446 13.98022588195203

Suivez CZ-6A DEB en temps réel avec AllMySat

Download on the App Store